QPF
0.00 0.00 0.00 0.00 0.00 0.00 0.00 0.01 0.01 0.01 0.01 0.02 0.01 0.02 0.03 0.06 0.05 0.05 0.03 0.03 0.02 0.03 0.05 0.07 0.11 0.12 0.15 0.14 0.11 0.10 0.08 0.08 0.08 0.08 0.10 0.12 0.12 0.13 0.13 0.11 0.12 0.14 0.13 0.12 0.14 0.14 0.13 0.11 0.09
0.00 0.00 0.00 0.00 0.00 0.00 0.01 0.01 0.01 0.01 0.01 0.01 0.01 0.02 0.04 0.07 0.06 0.05 0.04 0.03 0.04 0.05 0.05 0.06 0.09 0.13 0.18 0.16 0.13 0.10 0.09 0.07 0.08 0.10 0.12 0.13 0.14 0.17 0.17 0.14 0.13 0.12 0.12 0.15 0.14 0.11 0.13 0.11 0.10
0.00 0.00 0.00 0.00 0.00 0.00 0.01 0.01 0.01 0.00 0.00 0.01 0.01 0.02 0.04 0.05 0.05 0.07 0.07 0.05 0.06 0.05 0.07 0.09 0.11 0.13 0.16 0.14 0.12 0.09 0.08 0.09 0.10 0.11 0.11 0.10 0.11 0.15 0.14 0.13 0.11 0.09 0.11 0.15 0.16 0.12 0.12 0.13 0.14
0.00 0.00 0.00 0.00 0.00 0.00 0.01 0.01 0.00 0.01 0.00 0.00 0.01 0.02 0.02 0.03 0.05 0.10 0.12 0.10 0.08 0.08 0.09 0.11 0.15 0.13 0.13 0.12 0.11 0.08 0.08 0.08 0.10 0.10 0.09 0.10 0.11 0.12 0.12 0.10 0.10 0.08 0.09 0.11 0.14 0.14 0.15 0.16 0.16
0.00 0.00 0.00 0.00 0.00 0.00 0.01 0.00 0.00 0.01 0.00 0.01 0.01 0.02 0.02 0.02 0.02 0.04 0.06 0.06 0.06 0.06 0.07 0.11 0.16 0.15 0.11 0.08 0.09 0.12 0.13 0.13 0.13 0.12 0.09 0.10 0.10 0.10 0.10 0.08 0.09 0.09 0.09 0.09 0.10 0.10 0.12 0.16 0.18
0.00 0.00 0.00 0.00 0.00 0.00 0.00 0.00 0.00 0.00 0.00 0.00 0.00 0.02 0.04 0.03 0.02 0.02 0.02 0.03 0.04 0.05 0.07 0.11 0.16 0.17 0.15 0.10 0.12 0.20 0.22 0.19 0.15 0.12 0.09 0.09 0.10 0.13 0.11 0.07 0.07 0.06 0.07 0.08 0.07 0.07 0.09 0.12 0.16
0.00 0.00 0.00 0.00 0.00 0.00 0.00 0.00 0.00 0.00 0.00 0.00 0.00 0.03 0.05 0.03 0.02 0.01 0.01 0.02 0.03 0.04 0.07 0.09 0.12 0.14 0.15 0.16 0.21 0.22 0.17 0.18 0.18 0.15 0.13 0.10 0.10 0.11 0.09 0.07 0.07 0.06 0.08 0.08 0.09 0.10 0.09 0.12 0.15
0.00 0.00 0.00 0.00 0.00 0.00 0.00 0.00 0.00 0.00 0.01 0.00 0.00 0.01 0.03 0.02 0.01 0.01 0.01 0.02 0.02 0.02 0.04 0.06 0.06 0.07 0.08 0.12 0.15 0.13 0.10 0.14 0.15 0.13 0.11 0.09 0.07 0.08 0.06 0.05 0.06 0.06 0.07 0.07 0.08 0.09 0.07 0.10 0.12
0.00 0.00 0.00 0.00 0.00 0.00 0.00 0.00 0.00 0.00 0.00 0.00 0.00 0.00 0.00 0.00 0.00 0.01 0.03 0.03 0.02 0.03 0.03 0.03 0.03 0.03 0.04 0.06 0.09 0.10 0.09 0.11 0.10 0.07 0.06 0.05 0.06 0.07 0.05 0.03 0.05 0.07 0.08 0.10 0.10 0.11 0.08 0.10 0.11
0.00 0.00 0.00 0.00 0.00 0.00 0.00 0.00 0.00 0.00 0.00 0.01 0.01 0.01 0.01 0.01 0.01 0.01 0.03 0.05 0.04 0.05 0.05 0.04 0.04 0.03 0.03 0.04 0.08 0.11 0.09 0.09 0.07 0.06 0.05 0.06 0.06 0.06 0.03 0.03 0.04 0.06 0.08 0.11 0.14 0.13 0.10 0.11 0.08
0.00 0.00 0.00 0.00 0.00 0.00 0.00 0.00 0.00 0.00 0.00 0.01 0.01 0.00 0.01 0.01 0.02 0.02 0.02 0.02 0.02 0.03 0.04 0.04 0.04 0.03 0.04 0.05 0.06 0.09 0.09 0.08 0.05 0.04 0.04 0.06 0.05 0.04 0.04 0.06 0.07 0.07 0.10 0.13 0.15 0.12 0.10 0.09 0.07
0.00 0.00 0.00 0.00 0.00 0.00 0.00 0.00 0.00 0.00 0.00 0.00 0.00 0.00 0.00 0.00 0.01 0.01 0.01 0.02 0.02 0.03 0.03 0.04 0.04 0.03 0.04 0.04 0.04 0.05 0.06 0.06 0.06 0.05 0.03 0.03 0.05 0.05 0.05 0.07 0.08 0.09 0.13 0.15 0.12 0.12 0.10 0.07 0.05
0.00 0.00 0.00 0.00 0.00 0.00 0.00 0.00 0.00 0.00 0.00 0.00 0.00 0.00 0.00 0.00 0.00 0.01 0.01 0.03 0.03 0.04 0.03 0.03 0.03 0.03 0.04 0.04 0.04 0.04 0.06 0.07 0.06 0.05 0.03 0.03 0.05 0.04 0.04 0.05 0.07 0.07 0.09 0.10 0.09 0.08 0.08 0.07 0.05
0.00 0.00 0.00 0.00 0.00 0.00 0.00 0.00 0.00 0.00 0.01 0.00 0.00 0.00 0.01 0.01 0.01 0.01 0.02 0.03 0.03 0.04 0.04 0.04 0.03 0.02 0.03 0.04 0.04 0.03 0.03 0.05 0.05 0.05 0.04 0.04 0.05 0.05 0.04 0.03 0.04 0.04 0.05 0.06 0.06 0.06 0.06 0.06 0.05
0.00 0.00 0.00 0.00 0.00 0.00 0.00 0.00 0.00 0.00 0.00 0.01 0.01 0.01 0.01 0.01 0.01 0.01 0.01 0.02 0.02 0.03 0.04 0.03 0.03 0.02 0.05 0.05 0.03 0.02 0.01 0.04 0.06 0.06 0.05 0.04 0.03 0.04 0.04 0.04 0.03 0.03 0.05 0.06 0.05 0.05 0.06 0.06 0.05
0.00 0.00 0.00 0.00 0.00 0.00 0.00 0.00 0.00 0.00 0.00 0.00 0.01 0.01 0.01 0.01 0.01 0.00 0.00 0.02 0.01 0.01 0.02 0.03 0.02 0.02 0.04 0.04 0.04 0.04 0.02 0.04 0.07 0.06 0.05 0.04 0.04 0.04 0.04 0.05 0.05 0.04 0.05 0.07 0.07 0.06 0.06 0.08 0.08
0.00 0.00 0.00 0.00 0.00 0.00 0.00 0.00 0.00 0.00 0.00 0.00 0.00 0.00 0.00 0.00 0.00 0.01 0.00 0.00 0.01 0.01 0.01 0.02 0.02 0.03 0.04 0.04 0.04 0.04 0.04 0.05 0.05 0.05 0.06 0.05 0.03 0.03 0.04 0.05 0.07 0.05 0.05 0.05 0.05 0.06 0.07 0.07 0.09
0.00 0.00 0.00 0.00 0.00 0.00 0.00 0.00 0.00 0.00 0.00 0.00 0.00 0.00 0.00 0.00 0.00 0.00 0.00 0.00 0.01 0.01 0.01 0.01 0.02 0.02 0.03 0.02 0.04 0.05 0.04 0.06 0.05 0.04 0.05 0.05 0.05 0.04 0.05 0.05 0.06 0.04 0.06 0.08 0.07 0.09 0.09 0.08 0.09
0.00 0.00 0.00 0.00 0.00 0.00 0.00 0.00 0.00 0.00 0.00 0.00 0.00 0.00 0.00 0.00 0.00 0.00 0.00 0.00 0.00 0.00 0.01 0.01 0.01 0.02 0.03 0.02 0.02 0.03 0.05 0.06 0.05 0.03 0.02 0.03 0.04 0.04 0.05 0.05 0.06 0.05 0.06 0.09 0.08 0.09 0.10 0.09 0.07
0.00 0.00 0.00 0.00 0.00 0.00 0.00 0.00 0.00 0.00 0.00 0.00 0.00 0.00 0.00 0.00 0.00 0.00 0.00 0.00 0.00 0.00 0.01 0.01 0.01 0.01 0.02 0.03 0.02 0.02 0.04 0.05 0.06 0.04 0.04 0.03 0.05 0.07 0.05 0.06 0.07 0.06 0.08 0.09 0.08 0.09 0.09 0.07 0.07
0.00 0.00 0.00 0.00 0.00 0.00 0.00 0.00 0.00 0.00 0.01 0.01 0.01 0.00 0.00 0.00 0.00 0.00 0.00 0.00 0.00 0.01 0.01 0.01 0.01 0.01 0.01 0.01 0.02 0.02 0.03 0.03 0.03 0.04 0.05 0.05 0.07 0.09 0.08 0.06 0.06 0.07 0.08 0.09 0.09 0.10 0.11 0.11 0.10
0.00 0.00 0.00 0.00 0.00 0.00 0.00 0.00 0.00 0.00 0.00 0.00 0.01 0.00 0.00 0.00 0.00 0.00 0.00 0.00 0.00 0.01 0.00 0.01 0.01 0.01 0.01 0.01 0.02 0.02 0.03 0.03 0.03 0.02 0.04 0.05 0.06 0.07 0.08 0.07 0.07 0.07 0.07 0.10 0.08 0.07 0.10 0.12 0.12
0.00 0.00 0.00 0.00 0.00 0.00 0.00 0.00 0.00 0.00 0.00 0.00 0.00 0.00 0.00 0.00 0.00 0.00 0.00 0.00 0.00 0.00 0.00 0.00 0.01 0.01 0.01 0.01 0.01 0.02 0.02 0.02 0.02 0.02 0.03 0.04 0.04 0.04 0.04 0.05 0.07 0.08 0.08 0.08 0.07 0.07 0.08 0.09 0.09
0.00 0.00 0.00 0.00 0.00 0.00 0.00 0.00 0.00 0.00 0.00 0.00 0.00 0.00 0.00 0.00 0.00 0.00 0.00 0.00 0.00 0.00 0.00 0.00 0.01 0.02 0.01 0.01 0.01 0.01 0.02 0.02 0.02 0.03 0.03 0.04 0.04 0.03 0.03 0.05 0.07 0.09 0.10 0.10 0.09 0.07 0.07 0.08 0.08
0.00 0.00 0.00 0.00 0.00 0.00 0.00 0.00 0.00 0.00 0.00 0.00 0.00 0.00 0.00 0.00 0.00 0.00 0.00 0.00 0.00 0.00 0.00 0.00 0.01 0.01 0.00 0.00 0.01 0.01 0.02 0.02 0.02 0.02 0.02 0.03 0.02 0.02 0.03 0.04 0.06 0.06 0.07 0.08 0.08 0.07 0.06 0.07 0.08
0.00 0.00 0.00 0.00 0.00 0.00 0.00 0.00 0.00 0.00 0.00 0.00 0.00 0.00 0.00 0.00 0.00 0.00 0.00 0.00 0.00 0.00 0.01 0.01 0.01 0.01 0.01 0.01 0.01 0.01 0.02 0.02 0.01 0.01 0.01 0.02 0.02 0.02 0.03 0.04 0.04 0.05 0.05 0.04 0.06 0.05 0.06 0.07 0.07
0.00 0.00 0.00 0.00 0.00 0.00 0.00 0.00 0.00 0.00 0.00 0.00 0.00 0.00 0.00 0.00 0.00 0.00 0.01 0.01 0.01 0.01 0.01 0.01 0.01 0.01 0.01 0.01 0.01 0.02 0.02 0.02 0.02 0.01 0.01 0.02 0.02 0.02 0.02 0.03 0.03 0.04 0.05 0.04 0.04 0.04 0.04 0.05 0.06
0.00 0.00 0.00 0.00 0.00 0.00 0.00 0.00 0.00 0.00 0.00 0.00 0.00 0.00 0.00 0.00 0.00 0.01 0.01 0.01 0.01 0.01 0.01 0.01 0.00 0.01 0.01 0.01 0.01 0.02 0.02 0.03 0.02 0.01 0.01 0.01 0.02 0.02 0.02 0.03 0.03 0.04 0.04 0.03 0.03 0.04 0.04 0.05 0.04
0.00 0.00 0.00 0.00 0.00 0.00 0.00 0.00 0.00 0.00 0.00 0.00 0.00 0.00 0.00 0.01 0.01 0.01 0.01 0.01 0.01 0.01 0.01 0.00 0.00 0.01 0.01 0.01 0.02 0.02 0.01 0.01 0.01 0.01 0.01 0.02 0.03 0.02 0.03 0.03 0.03 0.04 0.04 0.03 0.04 0.04 0.05 0.05 0.05
0.00 0.00 0.00 0.00 0.00 0.00 0.00 0.00 0.00 0.00 0.00 0.00 0.00 0.01 0.01 0.01 0.01 0.01 0.01 0.01 0.01 0.01 0.00 0.00 0.00 0.01 0.01 0.01 0.01 0.01 0.01 0.02 0.02 0.02 0.02 0.03 0.03 0.03 0.03 0.04 0.03 0.03 0.03 0.03 0.03 0.03 0.04 0.05 0.06
MSLP
1002.88 1003.57 1004.46 1005.47 1006.49 1007.40 1008.13 1008.65 1008.96 1009.11 1009.18 1009.22 1009.29 1009.42 1009.60 1009.80 1009.99 1010.15 1010.26 1010.33 1010.39 1010.47 1010.59 1010.76 1010.97 1011.19 1011.39 1011.53 1011.61 1011.62 1011.59 1011.57 1011.60 1011.71 1011.92 1012.22 1012.57 1012.95 1013.30 1013.59 1013.82 1013.98 1014.11 1014.22 1014.34 1014.50 1014.69 1014.90 1015.10
1003.07 1003.90 1004.94 1006.07 1007.17 1008.11 1008.83 1009.27 1009.46 1009.46 1009.36 1009.25 1009.19 1009.20 1009.31 1009.46 1009.63 1009.79 1009.92 1010.02 1010.13 1010.27 1010.46 1010.72 1011.02 1011.33 1011.62 1011.84 1011.98 1012.03 1012.03 1012.02 1012.04 1012.13 1012.31 1012.57 1012.89 1013.23 1013.56 1013.83 1014.04 1014.20 1014.34 1014.47 1014.62 1014.79 1014.99 1015.20 1015.38
1003.37 1004.30 1005.42 1006.60 1007.71 1008.64 1009.31 1009.67 1009.78 1009.68 1009.50 1009.30 1009.17 1009.14 1009.20 1009.32 1009.46 1009.60 1009.71 1009.81 1009.93 1010.10 1010.35 1010.67 1011.06 1011.48 1011.86 1012.17 1012.38 1012.49 1012.53 1012.53 1012.54 1012.60 1012.74 1012.95 1013.22 1013.50 1013.77 1014.00 1014.20 1014.36 1014.52 1014.69 1014.88 1015.10 1015.33 1015.53 1015.70
1003.74 1004.72 1005.84 1007.01 1008.07 1008.94 1009.53 1009.83 1009.89 1009.76 1009.56 1009.37 1009.25 1009.22 1009.28 1009.39 1009.51 1009.61 1009.69 1009.75 1009.85 1010.02 1010.29 1010.67 1011.13 1011.62 1012.09 1012.49 1012.77 1012.94 1013.02 1013.03 1013.04 1013.08 1013.18 1013.33 1013.53 1013.74 1013.96 1014.15 1014.33 1014.50 1014.70 1014.91 1015.17 1015.43 1015.69 1015.91 1016.06
1004.14 1005.10 1006.17 1007.25 1008.22 1008.98 1009.49 1009.74 1009.77 1009.67 1009.53 1009.42 1009.38 1009.43 1009.54 1009.67 1009.78 1009.85 1009.87 1009.89 1009.94 1010.09 1010.35 1010.73 1011.23 1011.76 1012.29 1012.74 1013.08 1013.30 1013.41 1013.45 1013.46 1013.49 1013.56 1013.67 1013.81 1013.97 1014.13 1014.29 1014.46 1014.65 1014.88 1015.15 1015.47 1015.79 1016.09 1016.32 1016.45
1004.50 1005.40 1006.37 1007.31 1008.14 1008.77 1009.19 1009.40 1009.46 1009.43 1009.40 1009.43 1009.54 1009.71 1009.91 1010.09 1010.22 1010.26 1010.24 1010.21 1010.21 1010.30 1010.52 1010.88 1011.36 1011.90 1012.43 1012.90 1013.25 1013.49 1013.63 1013.69 1013.72 1013.75 1013.82 1013.91 1014.02 1014.15 1014.28 1014.42 1014.59 1014.80 1015.07 1015.40 1015.77 1016.14 1016.47 1016.71 1016.82
1004.80 1005.61 1006.43 1007.21 1007.87 1008.36 1008.69 1008.88 1008.99 1009.07 1009.20 1009.40 1009.68 1010.00 1010.33 1010.59 1010.75 1010.79 1010.75 1010.66 1010.61 1010.64 1010.81 1011.12 1011.54 1012.03 1012.51 1012.94 1013.27 1013.50 1013.63 1013.71 1013.76 1013.82 1013.91 1014.01 1014.13 1014.26 1014.38 1014.52 1014.70 1014.93 1015.24 1015.61 1016.03 1016.43 1016.79 1017.02 1017.11
1005.02 1005.71 1006.37 1006.97 1007.47 1007.83 1008.09 1008.27 1008.44 1008.65 1008.94 1009.32 1009.78 1010.27 1010.71 1011.06 1011.27 1011.34 1011.28 1011.18 1011.09 1011.07 1011.18 1011.41 1011.75 1012.15 1012.54 1012.88 1013.15 1013.33 1013.44 1013.52 1013.60 1013.70 1013.83 1013.97 1014.12 1014.27 1014.42 1014.58 1014.77 1015.03 1015.36 1015.76 1016.20 1016.63 1016.99 1017.22 1017.29
1005.16 1005.72 1006.24 1006.67 1007.01 1007.27 1007.47 1007.67 1007.91 1008.23 1008.68 1009.23 1009.85 1010.47 1011.03 1011.46 1011.72 1011.81 1011.78 1011.67 1011.57 1011.53 1011.58 1011.74 1011.99 1012.27 1012.55 1012.78 1012.94 1013.05 1013.12 1013.19 1013.29 1013.43 1013.60 1013.81 1014.01 1014.21 1014.39 1014.58 1014.79 1015.07 1015.41 1015.83 1016.28 1016.71 1017.07 1017.28 1017.33
1005.26 1005.70 1006.07 1006.37 1006.59 1006.77 1006.94 1007.16 1007.47 1007.91 1008.47 1009.15 1009.89 1010.61 1011.24 1011.73 1012.04 1012.17 1012.16 1012.08 1011.99 1011.95 1011.97 1012.08 1012.24 1012.42 1012.58 1012.68 1012.74 1012.76 1012.77 1012.82 1012.92 1013.09 1013.32 1013.58 1013.84 1014.09 1014.32 1014.54 1014.78 1015.06 1015.41 1015.83 1016.27 1016.69 1017.03 1017.22 1017.25
1005.35 1005.69 1005.95 1006.13 1006.27 1006.40 1006.57 1006.82 1007.20 1007.72 1008.38 1009.14 1009.94 1010.71 1011.37 1011.89 1012.22 1012.38 1012.41 1012.37 1012.31 1012.29 1012.32 1012.40 1012.51 1012.60 1012.66 1012.66 1012.61 1012.55 1012.50 1012.51 1012.61 1012.80 1013.06 1013.37 1013.68 1013.98 1014.25 1014.50 1014.75 1015.04 1015.39 1015.79 1016.21 1016.61 1016.92 1017.09 1017.09
1005.48 1005.74 1005.91 1006.02 1006.11 1006.23 1006.41 1006.71 1007.14 1007.73 1008.44 1009.23 1010.04 1010.81 1011.46 1011.96 1012.29 1012.47 1012.53 1012.53 1012.52 1012.54 1012.59 1012.67 1012.76 1012.81 1012.80 1012.73 1012.62 1012.48 1012.39 1012.37 1012.45 1012.64 1012.92 1013.25 1013.60 1013.92 1014.22 1014.49 1014.76 1015.05 1015.38 1015.76 1016.16 1016.52 1016.80 1016.94 1016.92
1005.68 1005.88 1005.99 1006.06 1006.14 1006.27 1006.49 1006.83 1007.32 1007.94 1008.67 1009.45 1010.23 1010.95 1011.55 1012.01 1012.31 1012.47 1012.55 1012.58 1012.62 1012.68 1012.77 1012.89 1012.98 1013.03 1013.01 1012.91 1012.77 1012.61 1012.48 1012.44 1012.51 1012.68 1012.95 1013.28 1013.63 1013.97 1014.27 1014.55 1014.82 1015.11 1015.43 1015.79 1016.15 1016.48 1016.73 1016.84 1016.79
1005.96 1006.11 1006.19 1006.25 1006.34 1006.50 1006.77 1007.16 1007.69 1008.33 1009.05 1009.79 1010.52 1011.16 1011.69 1012.07 1012.32 1012.46 1012.53 1012.58 1012.64 1012.74 1012.87 1013.03 1013.16 1013.24 1013.24 1013.17 1013.05 1012.90 1012.78 1012.72 1012.77 1012.93 1013.17 1013.47 1013.80 1014.12 1014.42 1014.70 1014.97 1015.25 1015.56 1015.89 1016.22 1016.52 1016.73 1016.81 1016.74
1006.30 1006.41 1006.47 1006.54 1006.66 1006.87 1007.19 1007.63 1008.18 1008.83 1009.52 1010.22 1010.87 1011.43 1011.88 1012.19 1012.38 1012.48 1012.52 1012.57 1012.63 1012.75 1012.91 1013.09 1013.27 1013.40 1013.46 1013.45 1013.38 1013.28 1013.19 1013.15 1013.19 1013.31 1013.52 1013.78 1014.06 1014.35 1014.63 1014.90 1015.16 1015.43 1015.73 1016.04 1016.35 1016.61 1016.79 1016.84 1016.75
1006.65 1006.74 1006.80 1006.89 1007.05 1007.31 1007.68 1008.15 1008.72 1009.35 1010.01 1010.65 1011.23 1011.72 1012.10 1012.35 1012.49 1012.55 1012.57 1012.59 1012.64 1012.75 1012.91 1013.11 1013.31 1013.50 1013.63 1013.70 1013.71 1013.68 1013.64 1013.63 1013.66 1013.76 1013.92 1014.12 1014.36 1014.60 1014.85 1015.10 1015.36 1015.63 1015.92 1016.21 1016.49 1016.72 1016.87 1016.89 1016.79
1006.97 1007.04 1007.11 1007.23 1007.44 1007.74 1008.15 1008.65 1009.22 1009.82 1010.43 1011.01 1011.54 1011.97 1012.30 1012.52 1012.64 1012.68 1012.68 1012.67 1012.70 1012.77 1012.91 1013.09 1013.31 1013.53 1013.72 1013.87 1013.96 1014.02 1014.04 1014.06 1014.10 1014.17 1014.28 1014.43 1014.60 1014.81 1015.03 1015.26 1015.51 1015.78 1016.06 1016.34 1016.60 1016.80 1016.92 1016.93 1016.82
1007.19 1007.26 1007.35 1007.52 1007.78 1008.13 1008.56 1009.06 1009.59 1010.15 1010.70 1011.23 1011.70 1012.10 1012.42 1012.64 1012.77 1012.82 1012.82 1012.80 1012.80 1012.83 1012.92 1013.07 1013.27 1013.50 1013.74 1013.95 1014.11 1014.24 1014.32 1014.37 1014.42 1014.46 1014.53 1014.62 1014.75 1014.91 1015.11 1015.33 1015.58 1015.84 1016.12 1016.39 1016.62 1016.80 1016.90 1016.90 1016.79
1007.29 1007.37 1007.51 1007.73 1008.04 1008.43 1008.86 1009.33 1009.82 1010.30 1010.77 1011.23 1011.65 1012.03 1012.36 1012.63 1012.81 1012.91 1012.95 1012.95 1012.93 1012.93 1012.97 1013.08 1013.24 1013.46 1013.70 1013.95 1014.16 1014.34 1014.47 1014.54 1014.59 1014.61 1014.64 1014.68 1014.77 1014.89 1015.07 1015.28 1015.53 1015.80 1016.07 1016.33 1016.55 1016.71 1016.79 1016.79 1016.69
1007.24 1007.37 1007.57 1007.86 1008.22 1008.63 1009.06 1009.48 1009.88 1010.26 1010.63 1010.99 1011.36 1011.73 1012.09 1012.42 1012.69 1012.88 1013.00 1013.05 1013.05 1013.04 1013.05 1013.11 1013.23 1013.42 1013.65 1013.90 1014.14 1014.34 1014.49 1014.58 1014.62 1014.62 1014.61 1014.62 1014.67 1014.77 1014.93 1015.14 1015.39 1015.65 1015.92 1016.17 1016.37 1016.52 1016.59 1016.59 1016.51
1007.06 1007.25 1007.54 1007.91 1008.33 1008.77 1009.17 1009.52 1009.80 1010.05 1010.28 1010.54 1010.84 1011.19 1011.58 1011.98 1012.36 1012.67 1012.91 1013.05 1013.12 1013.14 1013.14 1013.17 1013.26 1013.41 1013.61 1013.85 1014.08 1014.29 1014.45 1014.53 1014.56 1014.54 1014.51 1014.49 1014.51 1014.59 1014.73 1014.93 1015.18 1015.45 1015.71 1015.95 1016.13 1016.26 1016.33 1016.33 1016.28
1006.77 1007.05 1007.44 1007.91 1008.40 1008.85 1009.22 1009.48 1009.64 1009.73 1009.81 1009.93 1010.13 1010.44 1010.84 1011.32 1011.81 1012.26 1012.63 1012.90 1013.07 1013.15 1013.19 1013.23 1013.30 1013.42 1013.60 1013.82 1014.04 1014.24 1014.38 1014.46 1014.47 1014.43 1014.38 1014.33 1014.33 1014.39 1014.53 1014.72 1014.97 1015.23 1015.47 1015.69 1015.86 1015.98 1016.04 1016.06 1016.04
1006.43 1006.80 1007.30 1007.87 1008.43 1008.90 1009.23 1009.41 1009.44 1009.37 1009.28 1009.25 1009.34 1009.58 1009.97 1010.49 1011.07 1011.65 1012.16 1012.57 1012.86 1013.05 1013.16 1013.23 1013.32 1013.44 1013.61 1013.81 1014.02 1014.20 1014.33 1014.40 1014.40 1014.35 1014.27 1014.21 1014.20 1014.25 1014.36 1014.55 1014.78 1015.02 1015.25 1015.45 1015.60 1015.71 1015.77 1015.80 1015.81
1006.07 1006.54 1007.15 1007.80 1008.43 1008.93 1009.24 1009.35 1009.26 1009.05 1008.80 1008.61 1008.57 1008.72 1009.07 1009.59 1010.23 1010.90 1011.53 1012.08 1012.50 1012.80 1013.00 1013.15 1013.28 1013.43 1013.60 1013.80 1014.00 1014.18 1014.31 1014.36 1014.36 1014.30 1014.22 1014.15 1014.12 1014.16 1014.26 1014.43 1014.63 1014.85 1015.06 1015.23 1015.37 1015.46 1015.53 1015.57 1015.61
1005.73 1006.28 1006.98 1007.72 1008.41 1008.94 1009.26 1009.32 1009.15 1008.83 1008.45 1008.12 1007.94 1007.98 1008.25 1008.74 1009.38 1010.10 1010.82 1011.46 1012.00 1012.41 1012.72 1012.95 1013.15 1013.34 1013.54 1013.75 1013.96 1014.14 1014.27 1014.33 1014.33 1014.27 1014.19 1014.12 1014.09 1014.11 1014.20 1014.35 1014.52 1014.71 1014.89 1015.04 1015.16 1015.25 1015.32 1015.38 1015.45
1005.45 1006.05 1006.80 1007.61 1008.36 1008.94 1009.28 1009.34 1009.14 1008.75 1008.29 1007.86 1007.56 1007.49 1007.66 1008.07 1008.67 1009.37 1010.11 1010.81 1011.42 1011.91 1012.31 1012.62 1012.89 1013.13 1013.38 1013.62 1013.84 1014.03 1014.17 1014.25 1014.26 1014.22 1014.15 1014.09 1014.07 1014.08 1014.16 1014.28 1014.43 1014.59 1014.74 1014.87 1014.98 1015.06 1015.14 1015.23 1015.33
1005.23 1005.85 1006.64 1007.49 1008.29 1008.92 1009.31 1009.42 1009.25 1008.86 1008.36 1007.87 1007.50 1007.32 1007.38 1007.68 1008.19 1008.83 1009.53 1010.21 1010.84 1011.38 1011.83 1012.20 1012.52 1012.82 1013.10 1013.36 1013.61 1013.81 1013.97 1014.06 1014.10 1014.08 1014.04 1014.01 1013.99 1014.02 1014.08 1014.19 1014.32 1014.46 1014.59 1014.71 1014.80 1014.89 1014.99 1015.10 1015.23
1005.10 1005.71 1006.50 1007.37 1008.21 1008.91 1009.38 1009.57 1009.48 1009.15 1008.69 1008.20 1007.78 1007.53 1007.48 1007.66 1008.03 1008.56 1009.16 1009.78 1010.37 1010.89 1011.35 1011.75 1012.09 1012.41 1012.70 1012.98 1013.24 1013.45 1013.62 1013.74 1013.80 1013.82 1013.81 1013.81 1013.83 1013.87 1013.95 1014.06 1014.19 1014.32 1014.44 1014.55 1014.65 1014.75 1014.87 1015.00 1015.16
1005.06 1005.64 1006.42 1007.29 1008.16 1008.93 1009.49 1009.79 1009.83 1009.62 1009.25 1008.81 1008.40 1008.10 1007.96 1008.02 1008.25 1008.62 1009.09 1009.59 1010.08 1010.54 1010.95 1011.32 1011.65 1011.95 1012.24 1012.51 1012.75 1012.96 1013.13 1013.26 1013.34 1013.40 1013.44 1013.49 1013.55 1013.63 1013.75 1013.88 1014.02 1014.16 1014.30 1014.42 1014.53 1014.65 1014.79 1014.95 1015.13
1005.15 1005.69 1006.44 1007.31 1008.20 1009.02 1009.68 1010.11 1010.29 1010.22 1009.98 1009.63 1009.27 1008.96 1008.76 1008.71 1008.80 1009.01 1009.31 1009.66 1010.03 1010.38 1010.70 1011.00 1011.27 1011.52 1011.76 1011.98 1012.19 1012.37 1012.52 1012.65 1012.76 1012.85 1012.94 1013.04 1013.17 1013.31 1013.48 1013.66 1013.84 1014.02 1014.18 1014.33 1014.47 1014.62 1014.78 1014.96 1015.17
Thickness
5827 5830 5830 5823 5812 5798 5779 5781 5788 5783 5781 5785 5785 5781 5773 5767 5761 5751 5769 5778 5779 5779 5776 5771 5768 5768 5767 5768 5768 5768 5768 5768 5768 5768 5768 5767 5767 5766 5766 5766 5766 5766 5766 5765 5765 5764 5764 5763 5762
5837 5835 5829 5824 5807 5782 5774 5784 5783 5781 5784 5787 5785 5781 5774 5768 5771 5769 5773 5776 5779 5779 5777 5771 5766 5766 5766 5766 5766 5766 5767 5766 5766 5766 5766 5765 5765 5765 5764 5764 5764 5764 5764 5763 5763 5763 5763 5762 5761
5841 5837 5829 5821 5800 5783 5775 5784 5784 5787 5791 5788 5781 5780 5774 5767 5771 5773 5775 5778 5780 5778 5775 5768 5765 5764 5764 5764 5764 5765 5765 5765 5765 5764 5764 5763 5764 5763 5763 5763 5763 5762 5762 5761 5761 5761 5761 5761 5759
5842 5837 5831 5813 5791 5791 5791 5790 5791 5788 5788 5788 5784 5774 5772 5774 5776 5778 5778 5780 5779 5777 5775 5768 5764 5763 5763 5763 5764 5764 5764 5764 5764 5763 5762 5762 5762 5762 5761 5761 5761 5761 5760 5760 5760 5759 5760 5759 5757
5846 5837 5820 5804 5795 5797 5801 5799 5797 5788 5784 5785 5783 5770 5765 5775 5781 5780 5779 5780 5778 5777 5775 5769 5764 5763 5762 5762 5763 5763 5763 5762 5762 5761 5761 5760 5760 5760 5760 5760 5760 5759 5759 5759 5759 5758 5758 5757 5756
5842 5838 5814 5796 5794 5800 5803 5804 5798 5789 5784 5784 5780 5770 5765 5776 5778 5779 5780 5779 5779 5777 5774 5768 5763 5762 5762 5762 5762 5762 5761 5761 5761 5760 5759 5759 5759 5759 5759 5759 5759 5759 5758 5758 5757 5757 5756 5755 5754
5838 5831 5812 5806 5799 5798 5802 5808 5800 5792 5785 5784 5786 5772 5769 5775 5779 5780 5779 5778 5777 5776 5774 5770 5768 5764 5762 5761 5761 5761 5761 5760 5760 5759 5759 5758 5758 5758 5758 5758 5758 5758 5758 5757 5756 5755 5755 5754 5754
5850 5838 5819 5813 5804 5799 5809 5809 5806 5798 5789 5794 5792 5776 5769 5775 5780 5780 5779 5777 5775 5775 5775 5771 5770 5768 5767 5765 5762 5762 5761 5760 5759 5758 5758 5758 5758 5757 5757 5757 5757 5757 5757 5756 5756 5754 5754 5753 5752
5853 5834 5817 5815 5810 5807 5814 5807 5805 5808 5798 5794 5793 5788 5785 5783 5782 5778 5776 5774 5772 5772 5774 5774 5772 5769 5769 5768 5765 5765 5762 5760 5759 5759 5758 5759 5761 5761 5759 5758 5757 5757 5756 5756 5755 5754 5753 5752 5752
5848 5829 5822 5828 5827 5820 5815 5810 5807 5802 5792 5788 5786 5787 5786 5783 5780 5777 5773 5771 5771 5770 5772 5772 5772 5771 5770 5769 5767 5766 5766 5763 5763 5762 5762 5761 5761 5761 5761 5757 5757 5756 5756 5755 5754 5753 5753 5753 5755
5846 5832 5833 5835 5835 5829 5819 5813 5814 5803 5791 5792 5787 5784 5784 5782 5780 5778 5776 5776 5775 5774 5772 5772 5772 5770 5770 5769 5768 5767 5766 5764 5764 5763 5762 5762 5762 5762 5762 5760 5758 5758 5757 5757 5755 5755 5757 5757 5756
5843 5839 5840 5838 5838 5831 5823 5818 5812 5806 5801 5806 5801 5795 5788 5783 5781 5779 5777 5776 5776 5774 5773 5773 5771 5769 5768 5769 5768 5767 5767 5766 5765 5762 5763 5763 5763 5763 5762 5760 5760 5760 5759 5757 5758 5756 5756 5755 5755
5839 5838 5842 5842 5838 5834 5827 5818 5813 5807 5810 5810 5803 5796 5791 5787 5785 5783 5781 5778 5776 5774 5774 5773 5771 5769 5768 5767 5768 5768 5766 5767 5765 5763 5762 5762 5763 5763 5762 5760 5758 5760 5759 5757 5756 5756 5755 5755 5754
5844 5842 5840 5840 5836 5833 5824 5818 5814 5807 5812 5806 5800 5795 5793 5790 5787 5783 5780 5777 5776 5775 5774 5774 5772 5770 5768 5767 5767 5768 5769 5766 5766 5765 5763 5762 5762 5761 5761 5760 5759 5759 5758 5758 5756 5756 5755 5755 5755
5849 5837 5834 5835 5835 5833 5827 5810 5812 5814 5813 5805 5800 5797 5794 5792 5789 5785 5783 5780 5780 5777 5776 5774 5773 5771 5769 5769 5769 5770 5769 5768 5767 5765 5762 5761 5761 5760 5760 5760 5759 5759 5758 5756 5756 5756 5756 5756 5756
5844 5834 5824 5829 5834 5833 5823 5804 5815 5820 5812 5805 5802 5798 5794 5792 5791 5789 5787 5784 5783 5781 5778 5776 5778 5774 5771 5769 5769 5771 5770 5769 5767 5766 5764 5761 5760 5759 5759 5759 5759 5757 5758 5757 5756 5756 5756 5755 5754
5834 5826 5824 5825 5835 5833 5825 5813 5819 5823 5815 5807 5804 5801 5798 5794 5793 5792 5792 5789 5786 5783 5780 5777 5777 5775 5773 5771 5770 5770 5769 5768 5767 5766 5764 5762 5761 5760 5760 5759 5757 5757 5757 5757 5758 5757 5755 5753 5752
5825 5828 5826 5825 5833 5831 5823 5820 5823 5824 5819 5812 5808 5805 5801 5798 5796 5797 5795 5793 5790 5786 5783 5780 5777 5775 5774 5773 5771 5770 5769 5768 5767 5766 5763 5762 5760 5759 5759 5758 5756 5757 5756 5755 5755 5753 5752 5752 5751
5840 5832 5827 5829 5838 5830 5822 5821 5823 5825 5820 5815 5810 5807 5804 5803 5805 5803 5800 5797 5793 5788 5785 5782 5779 5777 5775 5773 5772 5769 5768 5768 5767 5767 5764 5762 5760 5759 5758 5759 5756 5756 5755 5753 5754 5752 5750 5750 5751
5836 5829 5828 5830 5835 5830 5824 5823 5829 5828 5823 5821 5816 5812 5810 5808 5806 5803 5801 5798 5795 5790 5787 5784 5781 5780 5777 5775 5773 5771 5770 5770 5769 5767 5764 5762 5760 5758 5759 5756 5756 5755 5753 5751 5751 5749 5748 5749 5750
5831 5831 5831 5827 5829 5831 5824 5819 5824 5829 5829 5826 5824 5822 5819 5814 5809 5806 5803 5801 5798 5794 5791 5789 5784 5782 5779 5778 5776 5773 5770 5769 5768 5765 5764 5762 5760 5758 5757 5756 5755 5754 5754 5751 5750 5748 5745 5745 5747
5825 5840 5836 5829 5821 5821 5821 5811 5823 5828 5825 5824 5824 5824 5822 5820 5816 5811 5808 5804 5801 5799 5797 5792 5787 5783 5780 5778 5777 5773 5769 5767 5767 5766 5765 5763 5761 5759 5757 5756 5754 5753 5754 5751 5751 5750 5748 5745 5743
5835 5841 5835 5830 5824 5820 5823 5814 5823 5829 5822 5825 5828 5828 5827 5825 5821 5816 5813 5809 5807 5804 5800 5795 5789 5785 5782 5780 5777 5773 5772 5771 5770 5768 5764 5762 5762 5759 5758 5756 5754 5752 5752 5750 5749 5748 5747 5746 5744
5836 5831 5826 5827 5826 5805 5816 5812 5813 5830 5827 5831 5834 5832 5831 5829 5825 5820 5818 5813 5809 5806 5802 5797 5790 5785 5783 5780 5778 5774 5771 5769 5767 5764 5763 5763 5763 5761 5758 5756 5753 5751 5750 5748 5747 5746 5745 5745 5743
5829 5815 5801 5798 5800 5804 5818 5812 5817 5834 5838 5837 5836 5835 5833 5831 5827 5822 5817 5812 5808 5805 5802 5798 5792 5786 5784 5781 5778 5775 5771 5768 5765 5765 5764 5762 5762 5760 5757 5756 5752 5750 5748 5747 5746 5744 5744 5743 5740
5824 5822 5800 5787 5794 5808 5810 5809 5825 5839 5841 5841 5841 5839 5835 5832 5829 5824 5820 5815 5809 5805 5801 5797 5792 5787 5784 5781 5777 5775 5772 5770 5769 5765 5764 5762 5761 5760 5758 5754 5751 5749 5747 5747 5744 5744 5742 5741 5739
5820 5822 5835 5818 5810 5805 5812 5817 5828 5838 5835 5836 5836 5834 5831 5830 5828 5825 5821 5816 5811 5806 5801 5798 5792 5787 5785 5782 5778 5774 5771 5769 5767 5764 5763 5762 5759 5758 5756 5753 5750 5748 5745 5744 5743 5742 5740 5738 5738
5832 5831 5821 5813 5790 5787 5801 5808 5815 5823 5826 5830 5830 5829 5828 5828 5826 5824 5822 5817 5813 5807 5802 5798 5793 5788 5785 5782 5778 5775 5771 5768 5765 5763 5760 5758 5756 5754 5752 5751 5749 5746 5744 5742 5740 5739 5738 5735 5734
5813 5815 5816 5815 5812 5795 5791 5806 5830 5827 5828 5827 5828 5828 5827 5826 5824 5822 5820 5817 5813 5807 5802 5796 5792 5788 5784 5781 5777 5773 5769 5766 5763 5760 5757 5755 5753 5751 5749 5747 5745 5743 5741 5739 5737 5737 5735 5733 5731
5822 5819 5814 5800 5797 5803 5802 5807 5834 5832 5833 5830 5828 5826 5826 5824 5823 5821 5818 5814 5810 5805 5800 5795 5791 5787 5784 5781 5776 5771 5768 5764 5760 5757 5754 5752 5749 5748 5746 5744 5741 5739 5738 5736 5734 5733 5732 5730 5728